Location: Ernez
(36.4595°N, 29.8755°E)
Time: 09:45:10
(UTC+00:00)

Okean 2 Rocket - Pass Details

Date: 13 November 2025
Orbit: 610 x 635 km, 82.5° (Epoch: 04 December)

Event Time Altitude Azimuth Distance (km) Brightness Sun altitude
Rises 17:12:58 0° 199° (SSW) 2,895 6.8 -28.2°
Reaches altitude 10° 17:15:15 10° 205° (SSW) 1,988 5.9 -28.6°
Enters shadow 17:18:47 43° 250° (WSW) 878 4.1 -29.3°
